[[{"header":{"parameterUnit":"m.s-1","parameterCategory":1,"la1":30.2991,"la2":30.254,"lo1":-89.0895,"lo2":-89.0444,"dy":0.0017,"dx":0.0017,"nx":28,"ny":28,"refTime":"2023-07-25T03:00:00:Z","depth":0,"parameterNumber":2,"parameterNumberName":"U-component_of_WINDS"},"data":[0,0,0,0,0,0,0,0,0,0,0,0,0,0,0,0,0,0,0,0,0,0,0,0,0,0,0,0,0,0,0,0,0,0,0,0,0,0,0,0,0,0,0,0,0,0,0,0,0,0,0,0,0,0,0,0,0,0,0.8444,0.8445,0,0.8557,0.8558,0.856,0.8604,0.8604,0.8604,0.8604,0.8721,0.8724,0.8727,0,0,0,0,0,0,0,0,0,0,0,0,0,0.8267,0.827,0.8444,0.8446,0.8447,0.8557,0.8558,0.856,0.8605,0.8604,0.8604,0.8603,0.8719,0.8723,0.8727,0,0,0,0,0,0,0,0,0,0,0,0,0,0.8359,0.8271,0.8444,0.8482,0.8487,0.8557,0.8559,0.856,0.8605,0.8604,0.8604,0.8603,0.8718,0.8723,0.8728,0.8768,0,0,0.8744,0.8746,0,0,0,0,0,0,0,0,0.8353,0.8365,0.8475,0.848,0.8485,0.8566,0.8539,0.863,0.8605,0.856,0.8604,0.8603,0.867,0.8679,0.8701,0.8774,0.8779,0.8744,0.8747,0.8749,0.8751,0,0,0,0,0,0,0,0.8347,0.836,0.8489,0.8477,0.8483,0.8494,0.8507,0.8557,0.8616,0.8564,0.8567,0.858,0.8672,0.8696,0.8704,0.878,0.8744,0.8748,0.8752,0.8753,0.8891,0.8891,0,0,0,0,0,0,0.8334,0.8355,0.8485,0.8492,0.8417,0.8498,0.8512,0.8541,0.8615,0.8626,0.858,0.8582,0.8687,0.8698,0.8708,0.876,0.8749,0.8754,0.8757,0.889,0.8891,0.8892,0,0,0,0,0,0,0.833,0.8345,0.8481,0.8425,0.8443,0.8501,0.8533,0.8543,0.8567,0.8628,0.8639,0.8593,0.8687,0.8701,0.8753,0.8764,0.8756,0.8761,0.889,0.8891,0.8891,0.8863,0,0,0,0,0,0,0.8325,0.8344,0.836,0.8425,0.8445,0.8523,0.8534,0.8546,0.8575,0.8578,0.8643,0.8654,0.8688,0.8745,0.8758,0.8771,0.8765,0.8889,0.889,0.8891,0.8863,0.8862,0.8862,0,0,0,0,0,0.8319,0.8347,0.836,0.8376,0.8466,0.8524,0.8536,0.8574,0.8576,0.8592,0.8631,0.8651,0.8761,0.875,0.8765,0.878,0.8888,0.889,0.8891,0.8863,0.8863,0.8862,0,0,0,0,0,0,0.8283,0.8357,0.8372,0.8422,0.8466,0.8531,0.8553,0.8573,0.8618,0.8619,0.8665,0.868,0.8727,0.8759,0.8745,0.8822,0.8826,0.883,0.88,0.88,0.8799,0.8791,0.8769,0,0,0,0,0,0.828,0.8321,0.8383,0.8422,0.8443,0.8494,0.852,0.8546,0.8594,0.8613,0.8656,0.8702,0.8746,0.8775,0.8819,0.8868,0.8882,0.8885,0.8885,0.8884,0.8888,0.8915,0.8917,0.8896,0.8896,0.8896,0,0,0.8277,0.8322,0.8345,0.8416,0.8453,0.8493,0.8509,0.8552,0.8582,0.862,0.8671,0.8704,0.8758,0.8807,0.8832,0.8835,0.8896,0.8886,0.8885,0.8889,0.8916,0.8918,0.892,0.8897,0.8897,0.8897,0,0,0.829,0.8329,0.8365,0.8402,0.8457,0.8491,0.8499,0.8561,0.8584,0.8636,0.8665,0.8702,0.8778,0.8815,0.8844,0.8871,0.8891,0.8884,0.8882,0.8908,0.891,0.8912,0.8921,0.8923,0.8887,0.8887,0.8887,0,0.8279,0.8341,0.8381,0.8422,0.8452,0.8487,0.8524,0.8557,0.8625,0.8645,0.8648,0.8744,0.8783,0.8841,0.8848,0.887,0.8881,0.8877,0.8906,0.8908,0.8911,0.892,0.8923,0.8886,0.8886,0.8886,0.8886,0,0.8323,0.8366,0.8388,0.8452,0.8485,0.8523,0.8569,0.8598,0.8621,0.8654,0.8706,0.8754,0.8808,0.8824,0.8847,0.8886,0.8886,0.8897,0.8902,0.8911,0.892,0.8924,0.8884,0.8884,0.8885,0.8885,0,0,0.8318,0.8403,0.841,0.8439,0.8503,0.8537,0.8576,0.8629,0.8652,0.8698,0.8732,0.8795,0.8805,0.8838,0.8866,0.8889,0.8906,0.8897,0.8899,0.8897,0.8951,0.8942,0.8946,0.892,0.892,0.8921,0.8946,0,0.8339,0.8412,0.8449,0.8506,0.8545,0.8579,0.8614,0.8656,0.8688,0.8727,0.8762,0.8806,0.8816,0.8836,0.886,0.8899,0.8918,0.8898,0.8952,0.8954,0.8937,0.8951,0.8942,0.8964,0.895,0.8951,0.8952,0,0.8375,0.8419,0.8479,0.8538,0.8556,0.8586,0.8637,0.8673,0.8723,0.8744,0.878,0.8807,0.885,0.8852,0.8912,0.8897,0.8922,0.8944,0.8946,0.8953,0.8953,0.8958,0.8972,0.8975,0.8958,0.8957,0.8957,0,0.8364,0.8439,0.8484,0.8508,0.8578,0.8598,0.8628,0.8677,0.8706,0.8751,0.877,0.8819,0.8846,0.8884,0.8923,0.8921,0.8979,0.8984,0.8999,0.8998,0.901,0.9008,0.9027,0.9025,0.9025,0.9025,0.9025,0,0.8384,0.842,0.848,0.8508,0.8549,0.8592,0.8631,0.8663,0.8706,0.8741,0.8773,0.8806,0.8856,0.8894,0.8925,0.897,0.8982,0.9001,0.9009,0.8998,0.8996,0.9015,0.9014,0.9026,0.9026,0.9026,0.9026,0,0.8379,0.8421,0.8473,0.8535,0.8551,0.8578,0.8631,0.8659,0.8692,0.8736,0.8749,0.8801,0.8848,0.8891,0.8954,0.8975,0.902,0.903,0.9003,0.9007,0.9019,0.9017,0.9051,0.9058,0.9051,0.9051,0.9051,0,0.8389,0.8417,0.8482,0.8507,0.8536,0.8577,0.8607,0.865,0.8679,0.8737,0.8758,0.8807,0.8849,0.8922,0.8966,0.9014,0.9025,0.9034,0.9033,0.9021,0.9025,0.9023,0.9026,0.9033,0.9033,0.9033,0.9033,0,0.8403,0.8422,0.8463,0.8512,0.8546,0.8587,0.8628,0.8647,0.8698,0.8729,0.8777,0.8809,0.8873,0.8921,0.8974,0.9005,0.9027,0.9033,0.9038,0.9028,0.9011,0.902,0.9001,0.9032,0.9032,0.9032,0.9032,0.9032,0.8406,0.8432,0.8481,0.8526,0.8561,0.8599,0.8629,0.8665,0.8706,0.876,0.8783,0.8832,0.888,0.8953,0.8984,0.9023,0.9027,0.9036,0.9038,0.9039,0.9037,0.9004,0.9032,0.9032,0.9033,0.9033,0.9033,0,0.842,0.8453,0.8494,0.8551,0.8586,0.8604,0.865,0.8678,0.8721,0.8763,0.8803,0.8858,0.8905,0.8952,0.9001,0.9023,0.9035,0.9035,0.9034,0.904,0.903,0.902,0.9025,0.9025,0.9025,0.9025,0.9025,0.9025,0.8432,0.8477,0.8502,0.8565,0.8598,0.8646,0.8671,0.8706,0.874,0.88,0.8838,0.8869,0.8913,0.8966,0.901,0.9022,0.9039,0.9036,0.9051,0.9041,0.9041,0.9041,0.9032,0.9039,0.9039,0.9059,0.9059,0.9059]},{"header":{"parameterUnit":"m.s-1","parameterCategory":1,"la1":30.2991,"la2":30.254,"lo1":-89.0895,"lo2":-89.0444,"dy":0.0017,"dx":0.0017,"nx":28,"ny":28,"refTime":"2023-07-25T03:00:00:Z","depth":0,"parameterNumber":3,"parameterNumberName":"V-component_of_WINDS"},"data":[0,0,0,0,0,0,0,0,0,0,0,0,0,0,0,0,0,0,0,0,0,0,0,0,0,0,0,0,0,0,0,0,0,0,0,0,0,0,0,0,0,0,0,0,0,0,0,0,0,0,0,0,0,0,0,0,0,0,2.2992,2.2991,0,2.2894,2.2893,2.2892,2.2873,2.2874,2.2874,2.2875,2.2767,2.2763,2.276,0,0,0,0,0,0,0,0,0,0,0,0,0,2.3156,2.3153,2.2992,2.2991,2.299,2.2894,2.2893,2.2891,2.2873,2.2874,2.2875,2.2876,2.2768,2.2764,2.276,0,0,0,0,0,0,0,0,0,0,0,0,0,2.3074,2.3152,2.2992,2.2969,2.2966,2.2894,2.2893,2.2891,2.2873,2.2874,2.2875,2.2876,2.277,2.2764,2.2759,2.2701,0,0,2.2742,2.274,0,0,0,0,0,0,0,0,2.3078,2.3068,2.2974,2.297,2.2967,2.2897,2.2911,2.2827,2.2872,2.2908,2.2875,2.2877,2.2809,2.28,2.2779,2.2696,2.2692,2.2742,2.2739,2.2736,2.2735,0,0,0,0,0,0,0,2.3084,2.3072,2.2953,2.2972,2.2968,2.2961,2.2951,2.2895,2.2852,2.2905,2.2903,2.2892,2.2807,2.2784,2.2776,2.269,2.2742,2.2737,2.2734,2.2732,2.2554,2.2553,0,0,0,0,0,0,2.3095,2.3077,2.2956,2.295,2.3027,2.2957,2.2946,2.2918,2.2853,2.2845,2.2891,2.2892,2.2793,2.2783,2.2772,2.27,2.2736,2.2731,2.2728,2.2556,2.2554,2.2552,0,0,0,0,0,0,2.3099,2.3084,2.296,2.3013,2.2997,2.2953,2.2922,2.2916,2.2893,2.2843,2.2835,2.2876,2.2793,2.278,2.272,2.2696,2.2729,2.2724,2.2557,2.2555,2.2553,2.2555,0,0,0,0,0,0,2.3103,2.3086,2.3065,2.3013,2.2994,2.2911,2.2921,2.2913,2.2884,2.2884,2.2827,2.2818,2.2793,2.2728,2.2714,2.2689,2.272,2.2559,2.2556,2.2554,2.2557,2.2553,2.255,0,0,0,0,0,2.3109,2.3068,2.3064,2.305,2.2968,2.291,2.2899,2.2873,2.2883,2.286,2.2828,2.282,2.2701,2.2722,2.2706,2.2679,2.256,2.2557,2.2554,2.2558,2.2554,2.255,0,0,0,0,0,0,2.3116,2.3061,2.3056,2.2997,2.2959,2.2907,2.2878,2.287,2.2826,2.2827,2.2795,2.2782,2.2723,2.2695,2.2719,2.2619,2.2631,2.2624,2.264,2.2635,2.2632,2.2639,2.2715,0,0,0,0,0,2.3112,2.3072,2.3025,2.2977,2.2958,2.2922,2.2895,2.288,2.2837,2.282,2.2783,2.2741,2.2693,2.2663,2.2617,2.2553,2.2539,2.2527,2.2524,2.2521,2.2515,2.2478,2.2472,2.2541,2.2541,2.2542,0,0,2.31,2.3065,2.3041,2.2978,2.2946,2.2903,2.2908,2.2862,2.2829,2.2812,2.2753,2.2725,2.2675,2.2613,2.2583,2.2587,2.2493,2.2517,2.2515,2.251,2.2474,2.2468,2.2462,2.2539,2.254,2.254,0,0,2.3057,2.3028,2.2985,2.2954,2.2907,2.2882,2.2872,2.2822,2.2803,2.2744,2.273,2.2689,2.2609,2.2574,2.2546,2.249,2.248,2.2476,2.2458,2.2422,2.2416,2.2411,2.239,2.2383,2.2471,2.2471,2.2471,0,2.3048,2.2986,2.2963,2.2918,2.289,2.2876,2.283,2.28,2.2739,2.2719,2.2725,2.2625,2.259,2.2518,2.2505,2.2483,2.2468,2.2482,2.242,2.2414,2.2409,2.2389,2.2381,2.247,2.247,2.247,2.247,0,2.2977,2.2933,2.2904,2.2848,2.2816,2.2772,2.274,2.271,2.2697,2.2672,2.2611,2.2569,2.2514,2.2496,2.2482,2.2422,2.2426,2.2427,2.2437,2.2403,2.2383,2.2375,2.247,2.247,2.247,2.247,0,0,2.2934,2.2868,2.2857,2.2832,2.2779,2.2744,2.2697,2.2646,2.2621,2.2579,2.2538,2.2471,2.2472,2.2439,2.2421,2.239,2.2347,2.2394,2.2392,2.2385,2.2277,2.2276,2.2268,2.2341,2.2339,2.2338,2.2281,0,2.2884,2.2804,2.2782,2.2713,2.2672,2.2658,2.2617,2.2579,2.2554,2.2514,2.2485,2.2438,2.2443,2.2423,2.2392,2.2359,2.2325,2.2363,2.23,2.2298,2.2312,2.2258,2.2256,2.2204,2.2273,2.2272,2.2271,0,2.2815,2.2775,2.2703,2.2655,2.2637,2.2601,2.2552,2.2515,2.247,2.2454,2.2419,2.2404,2.2353,2.2368,2.2295,2.2322,2.2295,2.2275,2.2272,2.2264,2.2281,2.2246,2.2187,2.2179,2.2259,2.226,2.226,0,2.279,2.2717,2.2665,2.2644,2.2587,2.2562,2.2537,2.2495,2.2465,2.2422,2.2402,2.2352,2.2324,2.2285,2.2256,2.227,2.2185,2.2198,2.2168,2.2169,2.215,2.2151,2.2084,2.2135,2.2135,2.2135,2.2136,0,2.2735,2.2691,2.2653,2.262,2.257,2.2545,2.2494,2.2468,2.2431,2.2391,2.2375,2.2337,2.2302,2.2259,2.2236,2.2179,2.2166,2.215,2.2144,2.2151,2.2152,2.2131,2.2133,2.2133,2.2134,2.2134,2.2135,0,2.2698,2.2671,2.2612,2.2565,2.2552,2.2516,2.2474,2.2441,2.2416,2.2366,2.2353,2.2313,2.2261,2.2229,2.2163,2.2147,2.2084,2.208,2.21,2.2096,2.2068,2.2071,2.1984,2.197,2.2032,2.2031,2.2031,0,2.2664,2.263,2.258,2.2554,2.2529,2.2486,2.2457,2.243,2.24,2.2347,2.232,2.2268,2.2225,2.2143,2.2107,2.2056,2.2049,2.2022,2.2041,2.2049,2.2047,2.2049,2.2044,2.2019,2.2018,2.2018,2.2017,0,2.2607,2.2595,2.2555,2.251,2.2476,2.2438,2.24,2.2379,2.2345,2.2311,2.226,2.2227,2.2161,2.2109,2.2056,2.2027,2.2015,2.2012,2.2002,2.2008,2.202,2.2012,2.209,2.2014,2.2014,2.2014,2.2015,2.2015,2.2569,2.2538,2.2498,2.2453,2.2423,2.2388,2.2354,2.2326,2.2284,2.223,2.2216,2.2162,2.2118,2.2045,2.2015,2.1971,2.1974,2.196,2.1956,2.1953,2.1952,2.2029,2.1961,2.1961,2.1961,2.1961,2.1961,0,2.251,2.2484,2.2443,2.2392,2.2356,2.2353,2.231,2.228,2.2234,2.2195,2.2154,2.2094,2.2044,2.2004,2.1952,2.1924,2.1917,2.1911,2.1911,2.1905,2.1953,2.1966,2.1917,2.1917,2.1917,2.1917,2.1917,2.1917,2.2475,2.2422,2.2406,2.2337,2.231,2.226,2.2236,2.2203,2.2172,2.2107,2.2066,2.2042,2.2002,2.1946,2.1899,2.1889,2.1869,2.1864,2.1852,2.1897,2.1901,2.1906,2.1918,2.186,2.186,2.1807,2.1807,2.1807]}]]